Petersburg, WV

7:37 PM EST on December 15, 2019 (GMT -0500)
Petersburg

Weather History for KW99 - September, 2019

Change the Weather History Date:

Friday, September 13, 2019

  Actual Average (WUND) Record (WUND)
Temperature  
Mean Temperature 68 °F -  
Max Temperature 71 °F - - (-1)
Min Temperature 66 °F - - (-1)
Cooling Degree Days 4    
Growing Degree Days 18 (Base 50)    
Moisture  
Dew Point 67 °F    
Average Humidity 92    
Maximum Humidity 99    
Minimum Humidity 76    
Precipitation  
Precipitation 0.02 in - - ()
Sea Level Pressure  
Sea Level Pressure 30.28 in    
Wind  
Wind Speed 1 mph (North)    
Max Wind Speed 7 mph    
Max Gust Speed -    
Visibility 10 miles    
Events Rain    
Averages and records for this station are not official NWS values.
T = Trace of Precipitation, MM = Missing Value Source: NWS Daily Summary

Daily Weather History Graph

Daily Weather History Graph

Search for Another Location

Airport or City:

Astronomy

Sep. 13, 2019 Rise Set
Actual Time 6:55 AM EDT 7:28 PM EDT
Civil Twilight 6:29 AM EDT 7:55 PM EDT
Nautical Twilight 5:57 AM EDT 8:26 PM EDT
Astronomical Twilight 5:24 AM EDT 8:59 PM EDT
Moon 7:40 PM EDT (9/13) 6:11 AM EDT (9/13)
Length of Visible Light 13h 26m
Length of Day
12h 32m
Full, 100% of the Moon is Illuminated
Sep 13
Full
Sep 14
Full
Sep 21
Last Quarter
Sep 28
New
Oct 5
First Quarter

Hourly Weather History & Observations

Time (EDT) Temp. Dew Point Humidity Pressure Visibility Wind Dir Wind Speed Gust Speed Precip Events Conditions
12:15 AM 67.8 °F 66.4 °F 95% 30.20 in 10.0 mi Calm Calm - N/A   Overcast
12:35 AM 68.4 °F 66.2 °F 93% 30.20 in 10.0 mi Calm Calm - N/A   Mostly Cloudy
12:55 AM 68.9 °F 66.6 °F 92% 30.21 in 10.0 mi Calm Calm - N/A   Overcast
1:15 AM 67.5 °F 66.4 °F 96% 30.22 in 10.0 mi Calm Calm - N/A   Mostly Cloudy
1:35 AM 68.4 °F 67.1 °F 96% 30.22 in 10.0 mi Calm Calm - N/A   Overcast
1:55 AM 68.4 °F 67.1 °F 96% 30.22 in 10.0 mi Calm Calm - N/A   Overcast
2:15 AM 68.9 °F 67.5 °F 95% 30.23 in 10.0 mi Calm Calm - N/A   Overcast
2:35 AM 69.3 °F 68.2 °F 96% 30.23 in 10.0 mi Calm Calm - N/A   Overcast
2:55 AM 69.3 °F 68.4 °F 97% 30.23 in 10.0 mi Calm Calm - N/A   Overcast
3:15 AM 69.8 °F 67.8 °F 93% 30.23 in 10.0 mi Calm Calm - N/A   Overcast
3:35 AM 69.8 °F 68.4 °F 95% 30.22 in 10.0 mi Calm Calm - N/A   Overcast
3:55 AM 69.8 °F 68.5 °F 96% 30.23 in 10.0 mi Calm Calm - N/A   Overcast
4:15 AM 69.8 °F 69.1 °F 98% 30.23 in 10.0 mi Calm Calm - N/A   Overcast
4:35 AM 70.0 °F 68.4 °F 95% 30.24 in 10.0 mi Calm Calm - N/A   Overcast
4:55 AM 70.0 °F 68.9 °F 96% 30.24 in 10.0 mi Calm Calm - N/A   Overcast
5:15 AM 70.0 °F 68.7 °F 96% 30.24 in 10.0 mi Calm Calm - N/A   Overcast
5:35 AM 69.6 °F 68.9 °F 98% 30.25 in 10.0 mi Calm Calm - N/A   Overcast
5:55 AM 69.3 °F 68.9 °F 99% 30.25 in 10.0 mi Calm Calm - N/A   Overcast
6:15 AM 69.4 °F 68.9 °F 98% 30.25 in 10.0 mi Calm Calm - N/A   Overcast
6:35 AM 69.8 °F 68.9 °F 97% 30.26 in 10.0 mi Calm Calm - N/A   Overcast
6:55 AM 69.8 °F 69.3 °F 98% 30.27 in 10.0 mi Calm Calm - N/A   Overcast
7:15 AM 69.8 °F 69.6 °F 99% 30.27 in 7.0 mi Calm Calm - N/A   Overcast
7:35 AM 69.8 °F 69.4 °F 99% 30.27 in 10.0 mi Calm Calm - N/A   Overcast
7:55 AM 70.0 °F 69.1 °F 97% 30.28 in 10.0 mi Calm Calm - N/A   Overcast
8:15 AM 70.2 °F 69.4 °F 98% 30.28 in 7.0 mi Calm Calm - N/A   Overcast
8:35 AM 70.7 °F 68.9 °F 94% 30.29 in 10.0 mi Calm Calm - N/A   Overcast
8:55 AM 70.9 °F 68.5 °F 92% 30.29 in 10.0 mi Calm Calm - N/A   Overcast
9:10 AM 71.2 °F 68.7 °F 92% 30.29 in 10.0 mi Calm Calm - N/A   Overcast
9:35 AM 71.8 °F 68.5 °F 89% 30.30 in 10.0 mi Calm Calm - N/A   Overcast
9:55 AM 71.8 °F 68.4 °F 89% 30.30 in 10.0 mi Calm Calm - N/A   Overcast
10:15 AM 71.8 °F 68.2 °F 88% 30.30 in 10.0 mi Calm Calm - N/A   Overcast
10:35 AM 71.8 °F 67.8 °F 87% 30.31 in 10.0 mi North 3.5 mph - N/A   Overcast
10:55 AM 71.8 °F 68.0 °F 88% 30.30 in 10.0 mi Calm Calm - N/A   Overcast
11:15 AM 70.9 °F 67.6 °F 89% 30.31 in 10.0 mi Calm Calm - N/A   Overcast
11:35 AM 70.2 °F 68.0 °F 93% 30.31 in 7.0 mi NNW 4.6 mph - N/A   Drizzle
11:55 AM 69.6 °F 68.4 °F 96% 30.32 in 4.0 mi NNW 3.5 mph - N/A   Drizzle
12:15 PM 68.9 °F 68.2 °F 98% 30.32 in 4.0 mi North 3.5 mph - 0.01 in Rain Rain
12:35 PM 69.3 °F 68.9 °F 99% 30.32 in 7.0 mi Calm Calm - 0.02 in   Light Drizzle
12:55 PM 69.4 °F 68.9 °F 98% 30.32 in 10.0 mi North 3.5 mph - 0.02 in   Light Drizzle
1:15 PM 69.6 °F 68.7 °F 97% 30.31 in 7.0 mi Calm Calm - N/A   Drizzle
1:30 PM 69.8 °F 68.9 °F 97% 30.31 in 10.0 mi Calm Calm - N/A Rain Light Rain
1:55 PM 70.2 °F 68.9 °F 96% 30.31 in 10.0 mi Calm Calm - N/A   Overcast
2:15 PM 70.0 °F 68.2 °F 94% 30.31 in 10.0 mi North 3.5 mph - N/A   Overcast
2:35 PM 70.3 °F 68.4 °F 93% 30.30 in 10.0 mi North 3.5 mph - N/A   Overcast
2:55 PM 70.3 °F 68.2 °F 93% 30.30 in 10.0 mi NNW 5.8 mph - N/A   Overcast
3:15 PM 70.2 °F 68.0 °F 93% 30.29 in 10.0 mi NNW 4.6 mph - N/A   Overcast
3:35 PM 69.8 °F 67.5 °F 92% 30.29 in 10.0 mi NNW 5.8 mph - N/A   Overcast
3:55 PM 69.1 °F 66.7 °F 92% 30.29 in 10.0 mi NNW 4.6 mph - N/A   Overcast
4:15 PM 68.5 °F 66.0 °F 92% 30.29 in 10.0 mi NNW 4.6 mph - N/A   Overcast
4:35 PM 68.2 °F 65.5 °F 91% 30.29 in 10.0 mi WNW 3.5 mph - N/A   Overcast
4:55 PM 68.0 °F 65.3 °F 91% 30.30 in 10.0 mi NW 3.5 mph - N/A   Overcast
5:15 PM 67.8 °F 64.8 °F 90% 30.30 in 10.0 mi NW 4.6 mph - N/A   Overcast
5:35 PM 68.0 °F 64.8 °F 89% 30.29 in 10.0 mi WNW 3.5 mph - N/A   Overcast
5:55 PM 68.0 °F 64.8 °F 89% 30.29 in 10.0 mi Calm Calm - N/A   Overcast
6:15 PM 67.3 °F 64.2 °F 90% 30.30 in 10.0 mi Calm Calm - N/A   Overcast
6:35 PM 67.1 °F 64.2 °F 90% 30.29 in 10.0 mi Calm Calm - N/A   Overcast
6:55 PM 67.1 °F 64.4 °F 91% 30.30 in 10.0 mi Calm Calm - N/A   Overcast
7:10 PM 66.7 °F 64.4 °F 92% 30.30 in 10.0 mi Calm Calm - N/A   Overcast
7:35 PM 66.7 °F 64.4 °F 92% 30.30 in 10.0 mi Calm Calm - N/A   Overcast
7:55 PM 66.7 °F 64.2 °F 92% 30.31 in 10.0 mi Calm Calm - N/A   Overcast
8:15 PM 66.7 °F 64.4 °F 92% 30.31 in 10.0 mi Calm Calm - N/A   Overcast
8:35 PM 67.5 °F 63.9 °F 88% 30.31 in 10.0 mi Calm Calm - N/A   Overcast
8:55 PM 69.8 °F 62.8 °F 78% 30.32 in 10.0 mi Calm Calm - N/A   Overcast
9:15 PM 69.6 °F 62.8 °F 79% 30.31 in 10.0 mi SE 6.9 mph - N/A   Overcast
9:35 PM 69.8 °F 62.2 °F 77% 30.31 in 10.0 mi SE 5.8 mph - N/A   Overcast
9:55 PM 69.8 °F 61.9 °F 76% 30.32 in 10.0 mi SE 6.9 mph - N/A   Overcast
10:15 PM 69.4 °F 62.1 °F 77% 30.31 in 10.0 mi SE 5.8 mph - N/A   Overcast
10:35 PM 69.3 °F 61.9 °F 77% 30.32 in 10.0 mi ESE 5.8 mph - N/A   Overcast
10:55 PM 69.1 °F 61.9 °F 78% 30.32 in 10.0 mi SE 6.9 mph - N/A   Overcast
11:15 PM 68.9 °F 61.9 °F 78% 30.31 in 10.0 mi ESE 4.6 mph - N/A   Overcast
11:35 PM 68.9 °F 61.9 °F 78% 30.31 in 10.0 mi ESE 6.9 mph - N/A   Overcast
11:55 PM 68.5 °F 61.9 °F 79% 30.30 in 10.0 mi ESE 6.9 mph - N/A   Overcast